Location: F?ge?el
(45.8833°N, 22.5833°E)
Time: 05:45:52
(UTC+00:00)

Cosmos 1656 Rocket - Pass Details

Date: 17 November 2025
Orbit: 791 x 846 km, 71.1° (Epoch: 04 December)

Event Time Altitude Azimuth Distance (km) Brightness Sun altitude
Rises 16:39:17 0° 177° (S) 3,322 6.9 -17.8°
Reaches altitude 10° 16:41:52 10° 168° (SSE) 2,404 6.0 -18.3°
Maximum altitude 16:46:47 34° 105° (ESE) 1,326 4.2 -19.1°
Enters shadow 16:47:09 34° 97° (E) 1,335 4.2 -19.2°
